[[{"header":{"parameterUnit":"m.s-1","parameterCategory":1,"la1":30.2991,"la2":30.254,"lo1":-89.0895,"lo2":-89.0444,"dy":0.0017,"dx":0.0017,"nx":28,"ny":28,"refTime":"2023-09-13T09:00:00:Z","depth":0,"parameterNumber":2,"parameterNumberName":"U-component_of_WINDS"},"data":[0,0,0,0,0,0,0,0,0,0,0,0,0,0,0,0,0,0,0,0,0,0,0,0,0,0,0,0,0,0,0,0,0,0,0,0,0,0,0,0,0,0,0,0,0,0,0,0,0,0,0,0,0,0,0,0,0,0,2.4741,2.4742,0,2.4839,2.484,2.4841,2.4833,2.4831,2.483,2.4828,2.4931,2.4935,2.4939,0,0,0,0,0,0,0,0,0,0,0,0,0,2.4549,2.4553,2.4741,2.4742,2.4744,2.4839,2.484,2.4842,2.4833,2.4831,2.4829,2.4828,2.4929,2.4934,2.4939,0,0,0,0,0,0,0,0,0,0,0,0,0,2.4638,2.4554,2.4741,2.4751,2.4753,2.4839,2.484,2.4842,2.4833,2.4831,2.4829,2.4827,2.4928,2.4934,2.494,2.5023,0,0,2.4959,2.4961,0,0,0,0,0,0,0,0,2.4633,2.4645,2.4748,2.475,2.4752,2.4821,2.481,2.4903,2.4834,2.4803,2.4828,2.4826,2.4896,2.4905,2.4928,2.5028,2.5032,2.4959,2.4963,2.4966,2.4967,0,0,0,0,0,0,0,2.4627,2.4641,2.478,2.475,2.4752,2.4751,2.4761,2.4828,2.4861,2.4805,2.4805,2.4816,2.4897,2.4922,2.493,2.5034,2.4959,2.4964,2.4968,2.4971,2.5208,2.5211,0,0,0,0,0,0,2.4618,2.4636,2.4777,2.4783,2.4686,2.4756,2.4768,2.4802,2.486,2.4867,2.4818,2.4816,2.4913,2.4923,2.4934,2.5037,2.4965,2.4971,2.4975,2.5206,2.5209,2.5212,0,0,0,0,0,0,2.4614,2.4631,2.4773,2.4709,2.4727,2.4762,2.48,2.4805,2.483,2.487,2.4876,2.4838,2.4911,2.4925,2.5001,2.504,2.4974,2.498,2.5203,2.5207,2.521,2.5242,0,0,0,0,0,0,2.4609,2.463,2.4661,2.471,2.4731,2.4838,2.4802,2.4808,2.484,2.4838,2.489,2.4896,2.4911,2.4992,2.5007,2.5047,2.4985,2.5199,2.5205,2.5209,2.5237,2.5246,2.5254,0,0,0,0,0,2.4602,2.4666,2.4662,2.468,2.4771,2.484,2.4852,2.4866,2.4843,2.4876,2.4902,2.4895,2.5033,2.5,2.5017,2.5059,2.5197,2.5203,2.5209,2.5234,2.5244,2.5253,0,0,0,0,0,0,2.462,2.4672,2.4669,2.4751,2.4791,2.4838,2.4879,2.4877,2.4925,2.492,2.4937,2.4949,2.5026,2.505,2.5012,2.5144,2.5112,2.5122,2.5125,2.5136,2.5144,2.5137,2.499,0,0,0,0,0,2.4634,2.4685,2.4728,2.4796,2.4816,2.4844,2.4875,2.4883,2.4925,2.4942,2.4974,2.5016,2.5069,2.5104,2.5155,2.5241,2.5253,2.5279,2.5287,2.5293,2.5302,2.535,2.5363,2.5231,2.5231,2.5231,0,0,2.4662,2.4697,2.4729,2.4801,2.4833,2.4886,2.4859,2.4916,2.4957,2.4951,2.5025,2.505,2.5098,2.518,2.5217,2.5202,2.5341,2.5301,2.5306,2.531,2.5358,2.537,2.5381,2.5235,2.5234,2.5234,0,0,2.4742,2.4773,2.4833,2.4866,2.4915,2.4933,2.4948,2.4996,2.5012,2.5086,2.5084,2.5133,2.5223,2.5258,2.5288,2.5382,2.5378,2.5398,2.5441,2.5489,2.5499,2.5508,2.5543,2.5555,2.5406,2.5406,2.5406,0,2.4771,2.4851,2.4865,2.4924,2.4956,2.4953,2.5016,2.5047,2.511,2.5133,2.5115,2.523,2.5262,2.5353,2.5376,2.5399,2.5418,2.5392,2.5496,2.5506,2.5515,2.5548,2.5561,2.5409,2.5408,2.5408,2.5408,0,2.4886,2.4941,2.4985,2.5046,2.5083,2.5143,2.5167,2.5203,2.5208,2.5228,2.5305,2.5343,2.5403,2.5425,2.543,2.5517,2.5506,2.5492,2.5461,2.5529,2.5561,2.5574,2.5412,2.5411,2.541,2.541,0,0,2.4979,2.5048,2.5063,2.5092,2.5146,2.519,2.525,2.5308,2.5339,2.5383,2.5435,2.5513,2.5501,2.5534,2.5544,2.5585,2.5659,2.5566,2.5568,2.5583,2.5759,2.5769,2.5784,2.5656,2.5659,2.5661,2.5755,0,2.5065,2.5171,2.5186,2.5281,2.5333,2.5332,2.5385,2.5425,2.5446,2.5495,2.5518,2.5573,2.5552,2.5573,2.5614,2.5641,2.5695,2.5635,2.5706,2.5709,2.5695,2.58,2.5812,2.5898,2.5767,2.5769,2.5771,0,2.5179,2.5226,2.5326,2.5374,2.5397,2.5444,2.5499,2.5545,2.559,2.5603,2.5641,2.5646,2.571,2.5675,2.5765,2.5724,2.5754,2.5772,2.5776,2.5784,2.5744,2.5812,2.5926,2.594,2.579,2.5789,2.5787,0,2.5239,2.5327,2.5399,2.5423,2.548,2.5514,2.554,2.5583,2.5617,2.5665,2.5688,2.5743,2.5774,2.5817,2.5837,2.581,2.5926,2.5893,2.5939,2.5939,2.5964,2.5963,2.6086,2.5982,2.5982,2.5982,2.5982,0,2.5333,2.5395,2.5426,2.547,2.554,2.5557,2.5625,2.565,2.5689,2.5738,2.5741,2.5788,2.5811,2.5862,2.5878,2.595,2.5964,2.5977,2.598,2.5977,2.5976,2.5998,2.5993,2.5985,2.5985,2.5984,2.5983,0,2.5411,2.5435,2.5513,2.5562,2.5575,2.5625,2.5667,2.571,2.5731,2.5794,2.581,2.5844,2.5904,2.5928,2.6001,2.6012,2.6096,2.6095,2.6081,2.6082,2.6128,2.6124,2.6271,2.6291,2.6173,2.6174,2.6175,0,2.5471,2.5518,2.5572,2.5605,2.5632,2.5686,2.5721,2.5739,2.5776,2.5832,2.5869,2.5929,2.5978,2.6074,2.6106,2.6163,2.6163,2.6211,2.6172,2.6168,2.6166,2.6163,2.6169,2.6218,2.622,2.6221,2.6221,0,2.5574,2.5583,2.5633,2.5688,2.573,2.5774,2.5817,2.5844,2.587,2.5911,2.5973,2.6011,2.6086,2.6146,2.6205,2.6232,2.6232,2.6233,2.6248,2.6245,2.6235,2.6242,2.6101,2.623,2.6229,2.6229,2.6228,2.6228,2.5645,2.5688,2.5732,2.5789,2.5823,2.5863,2.5907,2.5934,2.5985,2.6048,2.6056,2.6122,2.6168,2.6247,2.6277,2.633,2.6317,2.6337,2.6343,2.6348,2.6351,2.6226,2.634,2.634,2.634,2.634,2.634,0,2.5749,2.5778,2.583,2.589,2.5935,2.5929,2.5977,2.6015,2.6073,2.6116,2.6164,2.6235,2.6294,2.633,2.639,2.6425,2.6426,2.644,2.6438,2.6445,2.6358,2.6341,2.6438,2.6438,2.6438,2.6438,2.6438,2.6438,2.5808,2.5881,2.5896,2.5986,2.6014,2.6079,2.6107,2.6145,2.6179,2.6258,2.6307,2.633,2.6371,2.6433,2.6487,2.6497,2.6519,2.6534,2.6542,2.6461,2.6451,2.6441,2.6425,2.6538,2.6538,2.6625,2.6625,2.6626]},{"header":{"parameterUnit":"m.s-1","parameterCategory":1,"la1":30.2991,"la2":30.254,"lo1":-89.0895,"lo2":-89.0444,"dy":0.0017,"dx":0.0017,"nx":28,"ny":28,"refTime":"2023-09-13T09:00:00:Z","depth":0,"parameterNumber":3,"parameterNumberName":"V-component_of_WINDS"},"data":[0,0,0,0,0,0,0,0,0,0,0,0,0,0,0,0,0,0,0,0,0,0,0,0,0,0,0,0,0,0,0,0,0,0,0,0,0,0,0,0,0,0,0,0,0,0,0,0,0,0,0,0,0,0,0,0,0,0,-0.0263,-0.0262,0,-0.0166,-0.0165,-0.0164,-0.0132,-0.0133,-0.0133,-0.0134,-0.0034,-0.0031,-0.0028,0,0,0,0,0,0,0,0,0,0,0,0,0,-0.042,-0.0417,-0.0263,-0.0262,-0.0261,-0.0167,-0.0165,-0.0164,-0.0132,-0.0133,-0.0133,-0.0134,-0.0035,-0.0032,-0.0028,0,0,0,0,0,0,0,0,0,0,0,0,0,-0.034,-0.0416,-0.0263,-0.0233,-0.023,-0.0167,-0.0165,-0.0164,-0.0132,-0.0133,-0.0134,-0.0134,-0.0036,-0.0032,-0.0027,0.0013,0,0,-0.0014,-0.0012,0,0,0,0,0,0,0,0,-0.0345,-0.0334,-0.0239,-0.0235,-0.0231,-0.0162,-0.0184,-0.0104,-0.0132,-0.0169,-0.0134,-0.0134,-0.0076,-0.0068,-0.0049,0.0018,0.0022,-0.0013,-0.001,-0.0008,-0.0007,0,0,0,0,0,0,0,-0.035,-0.0338,-0.0225,-0.0238,-0.0233,-0.0225,-0.0214,-0.0169,-0.012,-0.0166,-0.0164,-0.0153,-0.0074,-0.0053,-0.0046,0.0024,-0.0013,-0.0009,-0.0006,-0.0005,0.0129,0.0129,0,0,0,0,0,0,-0.0361,-0.0343,-0.0228,-0.0222,-0.0291,-0.0222,-0.021,-0.0184,-0.0121,-0.0112,-0.0152,-0.0152,-0.0061,-0.0052,-0.0043,0.0009,-0.0008,-0.0004,-0.0002,0.0128,0.0129,0.013,0,0,0,0,0,0,-0.0364,-0.0351,-0.0232,-0.0282,-0.0266,-0.0218,-0.0189,-0.0181,-0.0161,-0.011,-0.0101,-0.014,-0.0061,-0.0049,-0.0001,0.0013,-0.0002,0.0002,0.0127,0.0128,0.0129,0.0113,0,0,0,0,0,0,-0.0369,-0.0352,-0.0336,-0.0282,-0.0263,-0.0192,-0.0188,-0.0179,-0.0153,-0.0151,-0.0096,-0.0088,-0.0061,-0.0008,0.0004,0.0019,0.0006,0.0126,0.0127,0.0129,0.0113,0.0114,0.0115,0,0,0,0,0,-0.0375,-0.0345,-0.0336,-0.0322,-0.0243,-0.0191,-0.018,-0.015,-0.0152,-0.0135,-0.0103,-0.009,0.0009,-0.0003,0.001,0.0027,0.0125,0.0127,0.0129,0.0112,0.0113,0.0114,0,0,0,0,0,0,-0.0398,-0.0337,-0.0326,-0.0278,-0.024,-0.0186,-0.0164,-0.015,-0.011,-0.011,-0.0074,-0.0062,-0.0016,0.001,-0.0005,0.007,0.0068,0.0072,0.0051,0.0053,0.0053,0.0046,0.0009,0,0,0,0,0,-0.0398,-0.0362,-0.031,-0.0272,-0.0253,-0.0212,-0.0188,-0.0168,-0.0127,-0.0111,-0.0075,-0.0036,0.0004,0.003,0.0069,0.0116,0.0129,0.0135,0.0135,0.0136,0.014,0.0167,0.017,0.0136,0.0136,0.0136,0,0,-0.0397,-0.0359,-0.0338,-0.0276,-0.0244,-0.0207,-0.0199,-0.016,-0.0131,-0.0105,-0.0057,-0.003,0.0016,0.0064,0.0087,0.0088,0.0152,0.0138,0.0138,0.0142,0.0169,0.0172,0.0175,0.0137,0.0137,0.0136,0,0,-0.0376,-0.0343,-0.0308,-0.0276,-0.0229,-0.0202,-0.0193,-0.0141,-0.0122,-0.0074,-0.0053,-0.0019,0.0049,0.0081,0.0106,0.0139,0.0153,0.0151,0.0156,0.0182,0.0184,0.0187,0.0199,0.0203,0.0154,0.0154,0.0154,0,-0.038,-0.0323,-0.0292,-0.0253,-0.0227,-0.0202,-0.0166,-0.0137,-0.0078,-0.006,-0.0061,0.0025,0.0058,0.0114,0.0121,0.0141,0.0152,0.0145,0.0181,0.0184,0.0187,0.0199,0.0204,0.0154,0.0154,0.0154,0.0154,0,-0.0331,-0.0292,-0.0269,-0.0214,-0.0184,-0.0148,-0.0111,-0.0085,-0.0067,-0.004,0.0009,0.0049,0.0097,0.0111,0.0129,0.017,0.0169,0.0174,0.0173,0.0189,0.0201,0.0206,0.0153,0.0153,0.0153,0.0153,0,0,-0.0321,-0.0249,-0.0241,-0.0216,-0.0162,-0.0131,-0.0093,-0.0046,-0.0025,0.0014,0.0047,0.0104,0.011,0.0138,0.0159,0.0182,0.0206,0.0185,0.0187,0.0188,0.0253,0.0249,0.0254,0.0215,0.0216,0.0217,0.0249,0,-0.0292,-0.0224,-0.0195,-0.0139,-0.0103,-0.0079,-0.0046,-0.0009,0.0017,0.0052,0.0081,0.0121,0.0125,0.0142,0.0166,0.0198,0.0219,0.0196,0.0246,0.0248,0.0234,0.026,0.0256,0.0285,0.0254,0.0255,0.0256,0,-0.0249,-0.021,-0.0152,-0.0102,-0.0085,-0.0056,-0.0011,0.0022,0.0064,0.0081,0.0113,0.0133,0.0174,0.0169,0.0226,0.0209,0.0231,0.025,0.0252,0.0258,0.0253,0.0267,0.0295,0.0299,0.0263,0.0262,0.0262,0,-0.0248,-0.0181,-0.0137,-0.0116,-0.0057,-0.0037,-0.0011,0.003,0.0056,0.0096,0.0113,0.0157,0.0181,0.0214,0.0245,0.0239,0.0299,0.0297,0.0315,0.0314,0.0327,0.0326,0.0359,0.034,0.034,0.034,0.034,0,-0.0218,-0.0183,-0.0135,-0.0108,-0.0068,-0.0035,0.0004,0.0031,0.0068,0.01,0.0124,0.0154,0.0193,0.0229,0.0253,0.0297,0.0307,0.0323,0.0329,0.0321,0.0319,0.0337,0.0336,0.0341,0.0341,0.0341,0.0341,0,-0.0209,-0.0176,-0.0126,-0.0075,-0.0061,-0.0034,0.001,0.0038,0.0065,0.0106,0.0117,0.016,0.0203,0.0237,0.0293,0.0309,0.0355,0.0362,0.0341,0.0344,0.036,0.0358,0.0406,0.0414,0.0389,0.0389,0.0389,0,-0.0193,-0.0165,-0.0111,-0.0087,-0.0062,-0.0024,0.0002,0.0036,0.0063,0.0112,0.0134,0.0178,0.0215,0.0282,0.0318,0.0361,0.037,0.0383,0.0376,0.0368,0.0371,0.0369,0.0372,0.0384,0.0384,0.0384,0.0385,0,-0.0166,-0.0151,-0.0113,-0.007,-0.0039,-0.0003,0.0033,0.0051,0.0091,0.012,0.0164,0.0193,0.025,0.0294,0.034,0.0367,0.0382,0.0386,0.0393,0.0385,0.0372,0.038,0.0343,0.0385,0.0385,0.0385,0.0385,0.0385,-0.0152,-0.0127,-0.0084,-0.0043,-0.0013,0.0021,0.0049,0.0079,0.0116,0.0165,0.0182,0.0227,0.0269,0.0333,0.0359,0.0395,0.0397,0.0406,0.0408,0.041,0.041,0.0366,0.0404,0.0404,0.0404,0.0404,0.0404,0,-0.0124,-0.0096,-0.0059,-0.0009,0.0023,0.0035,0.0076,0.0102,0.0141,0.0178,0.0214,0.0265,0.0307,0.0346,0.0391,0.0412,0.042,0.0423,0.0422,0.0428,0.0406,0.0396,0.0415,0.0415,0.0415,0.0415,0.0415,0.0415,-0.0106,-0.0062,-0.0042,0.0018,0.0046,0.009,0.0112,0.0143,0.0173,0.0228,0.0263,0.0288,0.0326,0.0374,0.0413,0.0424,0.0439,0.0439,0.0452,0.0431,0.0429,0.0428,0.0419,0.0442,0.0442,0.0471,0.0471,0.0471]}]]